Showing default

AETHER-4, 67375

Orbit data source: Space-Track

AETHER-4, 67375 is a payload satellite owned by Kepler Comms (CA) in SSO that was launched on Sun, 11 Jan 2026 UTC via an FALCON 9 launch vehicle from the Air Force Western Test Range (AFWTR). Payload-class satellites include a variety of spacecraft equipped with specific instruments for various scientific and technological missions. These include communications satellites like Starlink; space stations such as the ISS; scientific satellites like the Hubble; Earth observation satellites from companies like Planet Labs, Umbra, and HawkEye 360; GPS; miniature CubeSats for education and research; and military/defense satellites.

Loading next visibility...
Identifier
67375, 2026-004N
Orbit
SSO
Country
Flag of CACA
Related business
Manufacturer
Kepler Comms
Mission
Operational Commercial Communications
Bus & Motor
KEPLER GEN2B, Unknown motor
Mass
300 kg wet, 300 kg dry
Launch date (UTC)
2026-01-11 (8 months ago)
Launch vehicle
FALCON 9
Launch site
Air Force Western Test Range (AFWTR)
Object type
Payload
Rocket body
Debris
Shape & HBR
Box + 2 Pan, 7.6 m
Radar Cross Section
4.448 m², Large (>1 m²)

Expand to show TLE details & history
Last TLE update: 1 day ago

TLE from 1 day ago
0 AETHER-4
1 67375U 26004N   26263.71638750  .00000390  00000-0  50760-4 0  9990
2 67375  97.8110 260.6218 0001385 152.6199 207.5090 14.85941560 37489
Epoch: 2026-09-20T17:11Z
TLE epoch observation values (Epoch: 2026-09-20T17:11:35.880Z)
Latitude
0.00004°
Longitude
3.11572°
Altitude
614.523 km
Speed
7.551 km/s
True Right ascension
17h 22m 29s
True Declination
0° 00' 00"
Sunlit
Object was in daylight at epoch
Visualization orbit readout
Latitude
Unknown
Longitude
Unknown
Altitude
Unknown
Speed
Unknown
Apparent Right ascension
Unknown
Apparent Declination
Unknown
Sunlit
N/A
Visualization observer readout
Local Sidereal Time
12:35:29
Azimuth
Unknown
Elevation
Unknown
Doppler factor
Unknown
Orbital elements
Apogee altitude
608.629 km
Perigee altitude
606.693 km
Semi-major axis
6,985.798 km
Eccentricity
0.00014
Inclination
97.811°
RAAN
260.6218°
Arg. of periapsis
152.6199°
True anomaly
207.50167°
Mean anomaly
207.509°
Eccentric anomaly
207.50534°
Mean motion
3.71723 °/min
Orbital period
96.85 mins
BSTAR
0.00005076
Loading maneuver chart data...
Computing Atmospheric mass density...
Loading historical data...
Loading historical data...
Loading historical data...
Loading historical data...
Loading historical data...
Loading historical data...
Loading historical data...

Documentation

Showing up to 5 results
|